Overview Statistics Trail Chart Weather Telemetry Raw packets
 

This is the latest recevied weather packets stored in our database for station/object LU4HH-15. If no packets are shown the sender has not sent any weather packets the latest 10 day(s).

<< 20 21 22 23 24 25 26 >>
Time Temp. Humidity Pressure Rain* Wind** Luminosity Snow
1788009774 15° C 57% 1022.8 hPa - - - -
1788008873 14.44° C 57% 1022.8 hPa - - - -
1788007972 14.44° C 58% 1022.9 hPa - - - -
1788007071 14.44° C 58% 1022.9 hPa - - - -
1788006170 14.44° C 58% 1022.6 hPa - - - -
1788005268 14.44° C 58% 1022.6 hPa - - - -
1788004367 13.89° C 58% 1022.4 hPa - - - -
1788003466 13.89° C 58% 1022.3 hPa - - - -
1788002565 13.89° C 58% 1022 hPa - - - -
1788001664 13.89° C 58% 1021.9 hPa - - - -
1788000763 13.89° C 58% 1021.9 hPa - - - -
1787999862 13.89° C 58% 1021.6 hPa - - - -
1787998961 13.89° C 58% 1021.5 hPa - - - -
1787998060 13.89° C 58% 1021.5 hPa - - - -
1787997159 14.44° C 58% 1021.4 hPa - - - -
1787996258 14.44° C 57% 1021.4 hPa - - - -
1787995357 16.67° C 53% 1021.3 hPa - - - -
1787993642 14.44° C 57% 1021.2 hPa - - - -
1787992741 14.44° C 57% 1021.3 hPa - - - -
1787991840 14.44° C 57% 1021.3 hPa - - - -
1787990972 14.44° C 57% 1021.7 hPa - - - -
1787990068 14.44° C 57% 1021.8 hPa - - - -
1787989166 14.44° C 57% 1022 hPa - - - -
1787988265 14.44° C 57% 1022.1 hPa - - - -
1787987364 14.44° C 58% 1022.3 hPa - - - -

* Rain since midnight (hover to see other rain measurements)
** Current wind speed in m/s (hover to see current wind gust speed)